Flag for Slovenia Weather past 2 weeks in Ljubljana, Slovenia

Now
46 °F

Cool.


Feels Like: 41 °F
Forecast: 37 / 54 °F
Wind: 8 mph from North

Location: Ljubljana / Bezigrad

Current Time: Oct 22, 2014 at 5:12:14 AM

Latest Report: Oct 22, 2014 at 4:00 AM


Visibility: N/A

Pressure: 29.67 "Hg

Humidity: 92%

Dew point: 43 °F

Location of LjubljanaLocation

Historic Weather in Ljubljana — Graph

°F

Ljubljana temperature yesterday

Maximum temperature yesterday: 70 °F (at 4:00 PM)
Minimum temperature yesterday: 54 °F (at 3:00 AM)
Average temperature yesterday: 61 °F

Past Weeks' High & Low Weather Summary

 TemperatureHumidityPressure
High77 °F (Oct 11, 2:00 PM)99% (Oct 11, 9:00 AM)30.36 "Hg (Oct 11, 9:00 AM)
Low49 °F (Oct 19, 6:00 AM)49% (Oct 14, 1:00 PM)29.54 "Hg (Oct 22, 2:00 AM)
Average63 °F80%30.01 "Hg
* Reported Oct 7 3:00 AM — Oct 22 3:00 AM, Ljubljana, Weather by CustomWeather, © 2014

Note: Actual official high and low records may vary slightly from our data, if they occured in-between our weather recording intervals... More about our weather records

Advertising

Ljubljana weather history for previous 24 hours

 ConditionsComfort  
Time TempWeatherWind HumidityBarometerVisibility
3:00 AM
Oct 22
52 °FCool.7 mph93%29.57 "HgN/A
2:00 AM57 °FCool.2 mph96%29.54 "HgN/A
1:00 AM57 °FCool.2 mph96%29.56 "HgN/A
12:00 AM60 °FCool.3 mph97%29.57 "HgN/A
11:00 PM
Oct 21
60 °FCool.1 mph95%29.63 "HgN/A
10:00 PM61 °FSprinkles. Overcast.1 mph92%29.69 "Hg6 mi
9:00 PM62 °FRain showers. Passing clouds.1 mph87%29.72 "Hg7 mi
8:00 PM63 °FPassing clouds.1 mph82%29.75 "Hg9 mi
7:00 PM65 °FPassing clouds.2 mph75%29.76 "Hg9 mi
6:00 PM67 °FPartly sunny.1 mph73%29.77 "Hg11 mi
5:00 PM68 °FPartly sunny.2 mph70%29.78 "Hg9 mi
4:00 PM70 °FPartly sunny.3 mph67%29.79 "Hg9 mi
3:00 PM69 °FPartly sunny.3 mph70%29.82 "Hg9 mi
2:00 PM69 °FOvercast.3 mph71%29.85 "Hg9 mi
1:00 PM66 °FOvercast.1 mph73%29.88 "Hg9 mi
12:00 PM63 °FFog.1 mph78%29.91 "Hg9 mi
11:00 AM60 °FPartly sunny.No wind85%29.93 "Hg7 mi
10:00 AM58 °FOvercast.1 mph87%29.93 "Hg7 mi
9:00 AM57 °FOvercast.2 mph91%29.94 "Hg7 mi
8:00 AM56 °FPartly sunny.1 mph93%29.91 "Hg9 mi
7:00 AM56 °FFog.1 mph93%29.93 "Hg3 mi
6:00 AM55 °FFog.2 mph94%29.95 "Hg3 mi
5:00 AM55 °FFog.1 mph94%29.94 "Hg4 mi
Weather by CustomWeather, © 2014

See weather overviewHow to use our weather pages